Index of /20260430/WXO-DD/model_gdps/15km/00/063
Name Last modified Size Description
Parent Directory -
20260430T00Z_MSC_GDPS_AbsoluteVorticity_IsbL-0200_LatLon0.15_PT063H.grib2 2026-04-30 04:16 1.2M
20260430T00Z_MSC_GDPS_AbsoluteVorticity_IsbL-0250_LatLon0.15_PT063H.grib2 2026-04-30 04:16 1.6M
20260430T00Z_MSC_GDPS_AbsoluteVorticity_IsbL-0500_LatLon0.15_PT063H.grib2 2026-04-30 04:16 1.5M
20260430T00Z_MSC_GDPS_AbsoluteVorticity_IsbL-0700_LatLon0.15_PT063H.grib2 2026-04-30 04:16 1.3M
20260430T00Z_MSC_GDPS_AbsoluteVorticity_IsbL-0850_LatLon0.15_PT063H.grib2 2026-04-30 04:16 1.6M
20260430T00Z_MSC_GDPS_AirTemp_AGL-120m_LatLon0.15_PT063H.grib2 2026-04-30 04:16 909K
20260430T00Z_MSC_GDPS_AirTemp_AGL-2m_LatLon0.15_PT063H.grib2 2026-04-30 04:16 1.0M
20260430T00Z_MSC_GDPS_AirTemp_AGL-40m_LatLon0.15_PT063H.grib2 2026-04-30 04:16 811K
20260430T00Z_MSC_GDPS_AirTemp_AGL-80m_LatLon0.15_PT063H.grib2 2026-04-30 04:16 800K
20260430T00Z_MSC_GDPS_AirTemp_IsbL-0001_LatLon0.15_PT063H.grib2 2026-04-30 04:16 658K
20260430T00Z_MSC_GDPS_AirTemp_IsbL-0005_LatLon0.15_PT063H.grib2 2026-04-30 04:16 683K
20260430T00Z_MSC_GDPS_AirTemp_IsbL-0010_LatLon0.15_PT063H.grib2 2026-04-30 04:16 758K
20260430T00Z_MSC_GDPS_AirTemp_IsbL-0020_LatLon0.15_PT063H.grib2 2026-04-30 04:16 783K
20260430T00Z_MSC_GDPS_AirTemp_IsbL-0030_LatLon0.15_PT063H.grib2 2026-04-30 04:16 750K
20260430T00Z_MSC_GDPS_AirTemp_IsbL-0050_LatLon0.15_PT063H.grib2 2026-04-30 04:16 806K
20260430T00Z_MSC_GDPS_AirTemp_IsbL-0100_LatLon0.15_PT063H.grib2 2026-04-30 04:16 966K
20260430T00Z_MSC_GDPS_AirTemp_IsbL-0150_LatLon0.15_PT063H.grib2 2026-04-30 04:16 1.0M
20260430T00Z_MSC_GDPS_AirTemp_IsbL-0175_LatLon0.15_PT063H.grib2 2026-04-30 04:16 964K
20260430T00Z_MSC_GDPS_AirTemp_IsbL-0200_LatLon0.15_PT063H.grib2 2026-04-30 04:16 1.0M
20260430T00Z_MSC_GDPS_AirTemp_IsbL-0225_LatLon0.15_PT063H.grib2 2026-04-30 04:16 1.0M
20260430T00Z_MSC_GDPS_AirTemp_IsbL-0250_LatLon0.15_PT063H.grib2 2026-04-30 04:16 1.0M
20260430T00Z_MSC_GDPS_AirTemp_IsbL-0275_LatLon0.15_PT063H.grib2 2026-04-30 04:16 1.0M
20260430T00Z_MSC_GDPS_AirTemp_IsbL-0300_LatLon0.15_PT063H.grib2 2026-04-30 04:16 1.0M
20260430T00Z_MSC_GDPS_AirTemp_IsbL-0350_LatLon0.15_PT063H.grib2 2026-04-30 04:16 928K
20260430T00Z_MSC_GDPS_AirTemp_IsbL-0400_LatLon0.15_PT063H.grib2 2026-04-30 04:16 942K
20260430T00Z_MSC_GDPS_AirTemp_IsbL-0450_LatLon0.15_PT063H.grib2 2026-04-30 04:16 963K
20260430T00Z_MSC_GDPS_AirTemp_IsbL-0500_LatLon0.15_PT063H.grib2 2026-04-30 04:16 1.0M
20260430T00Z_MSC_GDPS_AirTemp_IsbL-0550_LatLon0.15_PT063H.grib2 2026-04-30 04:16 804K
20260430T00Z_MSC_GDPS_AirTemp_IsbL-0600_LatLon0.15_PT063H.grib2 2026-04-30 04:16 900K
20260430T00Z_MSC_GDPS_AirTemp_IsbL-0650_LatLon0.15_PT063H.grib2 2026-04-30 04:16 924K
20260430T00Z_MSC_GDPS_AirTemp_IsbL-0700_LatLon0.15_PT063H.grib2 2026-04-30 04:16 958K
20260430T00Z_MSC_GDPS_AirTemp_IsbL-0750_LatLon0.15_PT063H.grib2 2026-04-30 04:16 1.0M
20260430T00Z_MSC_GDPS_AirTemp_IsbL-0800_LatLon0.15_PT063H.grib2 2026-04-30 04:16 1.1M
20260430T00Z_MSC_GDPS_AirTemp_IsbL-0850_LatLon0.15_PT063H.grib2 2026-04-30 04:16 1.1M
20260430T00Z_MSC_GDPS_AirTemp_IsbL-0875_LatLon0.15_PT063H.grib2 2026-04-30 04:16 1.2M
20260430T00Z_MSC_GDPS_AirTemp_IsbL-0900_LatLon0.15_PT063H.grib2 2026-04-30 04:16 1.1M
20260430T00Z_MSC_GDPS_AirTemp_IsbL-0925_LatLon0.15_PT063H.grib2 2026-04-30 04:16 1.1M
20260430T00Z_MSC_GDPS_AirTemp_IsbL-0950_LatLon0.15_PT063H.grib2 2026-04-30 04:16 1.1M
20260430T00Z_MSC_GDPS_AirTemp_IsbL-0970_LatLon0.15_PT063H.grib2 2026-04-30 04:16 1.2M
20260430T00Z_MSC_GDPS_AirTemp_IsbL-0985_LatLon0.15_PT063H.grib2 2026-04-30 04:16 1.1M
20260430T00Z_MSC_GDPS_AirTemp_IsbL-1000_LatLon0.15_PT063H.grib2 2026-04-30 04:16 1.1M
20260430T00Z_MSC_GDPS_AirTemp_IsbL-1015_LatLon0.15_PT063H.grib2 2026-04-30 04:16 1.1M
20260430T00Z_MSC_GDPS_Albedo_Sfc_LatLon0.15_PT063H.grib2 2026-04-30 04:16 241K
20260430T00Z_MSC_GDPS_CAPE_Sfc_LatLon0.15_PT063H.grib2 2026-04-30 04:16 4.0M
20260430T00Z_MSC_GDPS_CIN_Sfc_LatLon0.15_PT063H.grib2 2026-04-30 04:16 3.0M
20260430T00Z_MSC_GDPS_CloudWater_EAtm_LatLon0.15_PT063H.grib2 2026-04-30 04:16 537K
20260430T00Z_MSC_GDPS_ConvectivePrecip-Accum_Sfc_LatLon0.15_PT063H.grib2 2026-04-30 04:16 3.1M
20260430T00Z_MSC_GDPS_DewPointDepression_AGL-2m_LatLon0.15_PT063H.grib2 2026-04-30 04:16 766K
20260430T00Z_MSC_GDPS_DewPointDepression_IsbL-0010_LatLon0.15_PT063H.grib2 2026-04-30 04:16 62K
20260430T00Z_MSC_GDPS_DewPointDepression_IsbL-0020_LatLon0.15_PT063H.grib2 2026-04-30 04:16 65K
20260430T00Z_MSC_GDPS_DewPointDepression_IsbL-0030_LatLon0.15_PT063H.grib2 2026-04-30 04:16 80K
20260430T00Z_MSC_GDPS_DewPointDepression_IsbL-0050_LatLon0.15_PT063H.grib2 2026-04-30 04:16 376K
20260430T00Z_MSC_GDPS_DewPointDepression_IsbL-0100_LatLon0.15_PT063H.grib2 2026-04-30 04:16 414K
20260430T00Z_MSC_GDPS_DewPointDepression_IsbL-0150_LatLon0.15_PT063H.grib2 2026-04-30 04:16 467K
20260430T00Z_MSC_GDPS_DewPointDepression_IsbL-0175_LatLon0.15_PT063H.grib2 2026-04-30 04:16 576K
20260430T00Z_MSC_GDPS_DewPointDepression_IsbL-0200_LatLon0.15_PT063H.grib2 2026-04-30 04:16 685K
20260430T00Z_MSC_GDPS_DewPointDepression_IsbL-0225_LatLon0.15_PT063H.grib2 2026-04-30 04:16 780K
20260430T00Z_MSC_GDPS_DewPointDepression_IsbL-0250_LatLon0.15_PT063H.grib2 2026-04-30 04:16 860K
20260430T00Z_MSC_GDPS_DewPointDepression_IsbL-0275_LatLon0.15_PT063H.grib2 2026-04-30 04:16 879K
20260430T00Z_MSC_GDPS_DewPointDepression_IsbL-0300_LatLon0.15_PT063H.grib2 2026-04-30 04:16 917K
20260430T00Z_MSC_GDPS_DewPointDepression_IsbL-0350_LatLon0.15_PT063H.grib2 2026-04-30 04:16 946K
20260430T00Z_MSC_GDPS_DewPointDepression_IsbL-0400_LatLon0.15_PT063H.grib2 2026-04-30 04:16 1.0M
20260430T00Z_MSC_GDPS_DewPointDepression_IsbL-0450_LatLon0.15_PT063H.grib2 2026-04-30 04:16 1.0M
20260430T00Z_MSC_GDPS_DewPointDepression_IsbL-0500_LatLon0.15_PT063H.grib2 2026-04-30 04:16 1.0M
20260430T00Z_MSC_GDPS_DewPointDepression_IsbL-0550_LatLon0.15_PT063H.grib2 2026-04-30 04:16 1.0M
20260430T00Z_MSC_GDPS_DewPointDepression_IsbL-0600_LatLon0.15_PT063H.grib2 2026-04-30 04:16 1.0M
20260430T00Z_MSC_GDPS_DewPointDepression_IsbL-0650_LatLon0.15_PT063H.grib2 2026-04-30 04:16 1.1M
20260430T00Z_MSC_GDPS_DewPointDepression_IsbL-0700_LatLon0.15_PT063H.grib2 2026-04-30 04:16 1.1M
20260430T00Z_MSC_GDPS_DewPointDepression_IsbL-0750_LatLon0.15_PT063H.grib2 2026-04-30 04:16 1.1M
20260430T00Z_MSC_GDPS_DewPointDepression_IsbL-0800_LatLon0.15_PT063H.grib2 2026-04-30 04:16 1.2M
20260430T00Z_MSC_GDPS_DewPointDepression_IsbL-0850_LatLon0.15_PT063H.grib2 2026-04-30 04:16 1.2M
20260430T00Z_MSC_GDPS_DewPointDepression_IsbL-0875_LatLon0.15_PT063H.grib2 2026-04-30 04:16 1.1M
20260430T00Z_MSC_GDPS_DewPointDepression_IsbL-0900_LatLon0.15_PT063H.grib2 2026-04-30 04:16 1.1M
20260430T00Z_MSC_GDPS_DewPointDepression_IsbL-0925_LatLon0.15_PT063H.grib2 2026-04-30 04:16 1.0M
20260430T00Z_MSC_GDPS_DewPointDepression_IsbL-0950_LatLon0.15_PT063H.grib2 2026-04-30 04:16 1.0M
20260430T00Z_MSC_GDPS_DewPointDepression_IsbL-0970_LatLon0.15_PT063H.grib2 2026-04-30 04:16 1.0M
20260430T00Z_MSC_GDPS_DewPointDepression_IsbL-0985_LatLon0.15_PT063H.grib2 2026-04-30 04:16 1.0M
20260430T00Z_MSC_GDPS_DewPointDepression_IsbL-1000_LatLon0.15_PT063H.grib2 2026-04-30 04:16 1.0M
20260430T00Z_MSC_GDPS_DewPointDepression_IsbL-1015_LatLon0.15_PT063H.grib2 2026-04-30 04:16 920K
20260430T00Z_MSC_GDPS_DewPoint_AGL-2m_LatLon0.15_PT063H.grib2 2026-04-30 04:16 612K
20260430T00Z_MSC_GDPS_DownwardLongwaveRadiationFlux-Accum_Sfc_LatLon0.15_PT063H.grib2 2026-04-30 04:16 881K
20260430T00Z_MSC_GDPS_DownwardShortwaveRadiationFlux-Accum_NTAtm_LatLon0.15_PT063H.grib2 2026-04-30 04:16 215K
20260430T00Z_MSC_GDPS_DownwardShortwaveRadiationFlux-Accum_Sfc_LatLon0.15_PT063H.grib2 2026-04-30 04:16 1.1M
20260430T00Z_MSC_GDPS_FreezingRain-Accum1h_Sfc_LatLon0.15_PT063H.grib2 2026-04-30 04:16 51K
20260430T00Z_MSC_GDPS_FreezingRain-Accum3h_Sfc_LatLon0.15_PT063H.grib2 2026-04-30 04:16 65K
20260430T00Z_MSC_GDPS_FreezingRain-Accum_Sfc_LatLon0.15_PT063H.grib2 2026-04-30 04:16 300K
20260430T00Z_MSC_GDPS_GeopotentialHeight_IsbL-0001_LatLon0.15_PT063H.grib2 2026-04-30 04:16 379K
20260430T00Z_MSC_GDPS_GeopotentialHeight_IsbL-0005_LatLon0.15_PT063H.grib2 2026-04-30 04:16 493K
20260430T00Z_MSC_GDPS_GeopotentialHeight_IsbL-0010_LatLon0.15_PT063H.grib2 2026-04-30 04:16 483K
20260430T00Z_MSC_GDPS_GeopotentialHeight_IsbL-0020_LatLon0.15_PT063H.grib2 2026-04-30 04:16 416K
20260430T00Z_MSC_GDPS_GeopotentialHeight_IsbL-0030_LatLon0.15_PT063H.grib2 2026-04-30 04:16 569K
20260430T00Z_MSC_GDPS_GeopotentialHeight_IsbL-0050_LatLon0.15_PT063H.grib2 2026-04-30 04:16 572K
20260430T00Z_MSC_GDPS_GeopotentialHeight_IsbL-0100_LatLon0.15_PT063H.grib2 2026-04-30 04:16 614K
20260430T00Z_MSC_GDPS_GeopotentialHeight_IsbL-0150_LatLon0.15_PT063H.grib2 2026-04-30 04:16 634K
20260430T00Z_MSC_GDPS_GeopotentialHeight_IsbL-0175_LatLon0.15_PT063H.grib2 2026-04-30 04:16 638K
20260430T00Z_MSC_GDPS_GeopotentialHeight_IsbL-0200_LatLon0.15_PT063H.grib2 2026-04-30 04:16 642K
20260430T00Z_MSC_GDPS_GeopotentialHeight_IsbL-0225_LatLon0.15_PT063H.grib2 2026-04-30 04:16 638K
20260430T00Z_MSC_GDPS_GeopotentialHeight_IsbL-0250_LatLon0.15_PT063H.grib2 2026-04-30 04:16 643K
20260430T00Z_MSC_GDPS_GeopotentialHeight_IsbL-0275_LatLon0.15_PT063H.grib2 2026-04-30 04:16 644K
20260430T00Z_MSC_GDPS_GeopotentialHeight_IsbL-0300_LatLon0.15_PT063H.grib2 2026-04-30 04:16 635K
20260430T00Z_MSC_GDPS_GeopotentialHeight_IsbL-0350_LatLon0.15_PT063H.grib2 2026-04-30 04:16 630K
20260430T00Z_MSC_GDPS_GeopotentialHeight_IsbL-0400_LatLon0.15_PT063H.grib2 2026-04-30 04:16 622K
20260430T00Z_MSC_GDPS_GeopotentialHeight_IsbL-0450_LatLon0.15_PT063H.grib2 2026-04-30 04:16 614K
20260430T00Z_MSC_GDPS_GeopotentialHeight_IsbL-0500_LatLon0.15_PT063H.grib2 2026-04-30 04:16 537K
20260430T00Z_MSC_GDPS_GeopotentialHeight_IsbL-0550_LatLon0.15_PT063H.grib2 2026-04-30 04:16 531K
20260430T00Z_MSC_GDPS_GeopotentialHeight_IsbL-0600_LatLon0.15_PT063H.grib2 2026-04-30 04:16 525K
20260430T00Z_MSC_GDPS_GeopotentialHeight_IsbL-0650_LatLon0.15_PT063H.grib2 2026-04-30 04:16 693K
20260430T00Z_MSC_GDPS_GeopotentialHeight_IsbL-0700_LatLon0.15_PT063H.grib2 2026-04-30 04:16 689K
20260430T00Z_MSC_GDPS_GeopotentialHeight_IsbL-0750_LatLon0.15_PT063H.grib2 2026-04-30 04:16 694K
20260430T00Z_MSC_GDPS_GeopotentialHeight_IsbL-0800_LatLon0.15_PT063H.grib2 2026-04-30 04:16 709K
20260430T00Z_MSC_GDPS_GeopotentialHeight_IsbL-0850_LatLon0.15_PT063H.grib2 2026-04-30 04:16 719K
20260430T00Z_MSC_GDPS_GeopotentialHeight_IsbL-0875_LatLon0.15_PT063H.grib2 2026-04-30 04:16 719K
20260430T00Z_MSC_GDPS_GeopotentialHeight_IsbL-0900_LatLon0.15_PT063H.grib2 2026-04-30 04:16 729K
20260430T00Z_MSC_GDPS_GeopotentialHeight_IsbL-0925_LatLon0.15_PT063H.grib2 2026-04-30 04:16 738K
20260430T00Z_MSC_GDPS_GeopotentialHeight_IsbL-0950_LatLon0.15_PT063H.grib2 2026-04-30 04:16 746K
20260430T00Z_MSC_GDPS_GeopotentialHeight_IsbL-0970_LatLon0.15_PT063H.grib2 2026-04-30 04:16 756K
20260430T00Z_MSC_GDPS_GeopotentialHeight_IsbL-0985_LatLon0.15_PT063H.grib2 2026-04-30 04:16 772K
20260430T00Z_MSC_GDPS_GeopotentialHeight_IsbL-1000_LatLon0.15_PT063H.grib2 2026-04-30 04:16 794K
20260430T00Z_MSC_GDPS_GeopotentialHeight_IsbL-1015_LatLon0.15_PT063H.grib2 2026-04-30 04:16 817K
20260430T00Z_MSC_GDPS_Humidex_Sfc_LatLon0.15_PT063H.grib2 2026-04-30 04:16 5.3M
20260430T00Z_MSC_GDPS_IcePellets-Accum1h_Sfc_LatLon0.15_PT063H.grib2 2026-04-30 04:16 11K
20260430T00Z_MSC_GDPS_IcePellets-Accum3h_Sfc_LatLon0.15_PT063H.grib2 2026-04-30 04:16 13K
20260430T00Z_MSC_GDPS_IcePellets-Accum_Sfc_LatLon0.15_PT063H.grib2 2026-04-30 04:16 68K
20260430T00Z_MSC_GDPS_KIndex_Sfc_LatLon0.15_PT063H.grib2 2026-04-30 04:16 6.5M
20260430T00Z_MSC_GDPS_LatentHeatNetFlux_Sfc_LatLon0.15_PT063H.grib2 2026-04-30 04:16 712K
20260430T00Z_MSC_GDPS_LiftedIndex-MU-VT_IsbL-0500_LatLon0.15_PT063H.grib2 2026-04-30 04:16 5.4M
20260430T00Z_MSC_GDPS_NetLongwaveRadiationFlux-Accum_Sfc_LatLon0.15_PT063H.grib2 2026-04-30 04:16 1.2M
20260430T00Z_MSC_GDPS_NetShortwaveRadiationFlux-Accum_Sfc_LatLon0.15_PT063H.grib2 2026-04-30 04:16 1.1M
20260430T00Z_MSC_GDPS_O3MixingRatio_Sfc_LatLon0.15_PT063H.grib2 2026-04-30 04:50 1.9M
20260430T00Z_MSC_GDPS_O3_EAtm_LatLon0.15_PT063H.grib2 2026-04-30 04:50 2.5M
20260430T00Z_MSC_GDPS_PlanetaryBoundaryLayerHeight_Sfc_LatLon0.15_PT063H.grib2 2026-04-30 04:16 2.5M
20260430T00Z_MSC_GDPS_Precip-Accum1h_Sfc_LatLon0.15_PT063H.grib2 2026-04-30 04:16 3.2M
20260430T00Z_MSC_GDPS_Precip-Accum3h_Sfc_LatLon0.15_PT063H.grib2 2026-04-30 04:16 3.5M
20260430T00Z_MSC_GDPS_Precip-Accum_Sfc_LatLon0.15_PT063H.grib2 2026-04-30 04:16 5.1M
20260430T00Z_MSC_GDPS_PrecipRate_Sfc_LatLon0.15_PT063H.grib2 2026-04-30 04:16 3.0M
20260430T00Z_MSC_GDPS_PrecipType-Instant_Sfc_LatLon0.15_PT063H.grib2 2026-04-30 04:16 1.6M
20260430T00Z_MSC_GDPS_Pressure_MSL_LatLon0.15_PT063H.grib2 2026-04-30 04:16 831K
20260430T00Z_MSC_GDPS_Pressure_PVU-1.5_LatLon0.15_PT063H.grib2 2026-04-30 04:16 5.8M
20260430T00Z_MSC_GDPS_Pressure_PVU-1_LatLon0.15_PT063H.grib2 2026-04-30 04:16 6.0M
20260430T00Z_MSC_GDPS_Pressure_PVU-2_LatLon0.15_PT063H.grib2 2026-04-30 04:16 6.0M
20260430T00Z_MSC_GDPS_Pressure_Sfc_LatLon0.15_PT063H.grib2 2026-04-30 04:16 1.1M
20260430T00Z_MSC_GDPS_RadiativeTemp_Sfc_LatLon0.15_PT063H.grib2 2026-04-30 04:16 494K
20260430T00Z_MSC_GDPS_Rain-Accum1h_Sfc_LatLon0.15_PT063H.grib2 2026-04-30 04:16 1.7M
20260430T00Z_MSC_GDPS_Rain-Accum3h_Sfc_LatLon0.15_PT063H.grib2 2026-04-30 04:16 1.9M
20260430T00Z_MSC_GDPS_Rain-Accum_Sfc_LatLon0.15_PT063H.grib2 2026-04-30 04:16 3.8M
20260430T00Z_MSC_GDPS_RelativeHumidity_AGL-2m_LatLon0.15_PT063H.grib2 2026-04-30 04:16 1.0M
20260430T00Z_MSC_GDPS_RelativeHumidity_IsbL-0010_LatLon0.15_PT063H.grib2 2026-04-30 04:16 200K
20260430T00Z_MSC_GDPS_RelativeHumidity_IsbL-0020_LatLon0.15_PT063H.grib2 2026-04-30 04:16 166K
20260430T00Z_MSC_GDPS_RelativeHumidity_IsbL-0030_LatLon0.15_PT063H.grib2 2026-04-30 04:16 266K
20260430T00Z_MSC_GDPS_RelativeHumidity_IsbL-0050_LatLon0.15_PT063H.grib2 2026-04-30 04:16 332K
20260430T00Z_MSC_GDPS_RelativeHumidity_IsbL-0100_LatLon0.15_PT063H.grib2 2026-04-30 04:16 514K
20260430T00Z_MSC_GDPS_RelativeHumidity_IsbL-0150_LatLon0.15_PT063H.grib2 2026-04-30 04:16 663K
20260430T00Z_MSC_GDPS_RelativeHumidity_IsbL-0175_LatLon0.15_PT063H.grib2 2026-04-30 04:16 588K
20260430T00Z_MSC_GDPS_RelativeHumidity_IsbL-0200_LatLon0.15_PT063H.grib2 2026-04-30 04:16 701K
20260430T00Z_MSC_GDPS_RelativeHumidity_IsbL-0225_LatLon0.15_PT063H.grib2 2026-04-30 04:16 793K
20260430T00Z_MSC_GDPS_RelativeHumidity_IsbL-0250_LatLon0.15_PT063H.grib2 2026-04-30 04:16 866K
20260430T00Z_MSC_GDPS_RelativeHumidity_IsbL-0275_LatLon0.15_PT063H.grib2 2026-04-30 04:16 886K
20260430T00Z_MSC_GDPS_RelativeHumidity_IsbL-0300_LatLon0.15_PT063H.grib2 2026-04-30 04:16 928K
20260430T00Z_MSC_GDPS_RelativeHumidity_IsbL-0350_LatLon0.15_PT063H.grib2 2026-04-30 04:16 947K
20260430T00Z_MSC_GDPS_RelativeHumidity_IsbL-0400_LatLon0.15_PT063H.grib2 2026-04-30 04:16 972K
20260430T00Z_MSC_GDPS_RelativeHumidity_IsbL-0450_LatLon0.15_PT063H.grib2 2026-04-30 04:16 1.0M
20260430T00Z_MSC_GDPS_RelativeHumidity_IsbL-0500_LatLon0.15_PT063H.grib2 2026-04-30 04:16 1.0M
20260430T00Z_MSC_GDPS_RelativeHumidity_IsbL-0550_LatLon0.15_PT063H.grib2 2026-04-30 04:16 1.0M
20260430T00Z_MSC_GDPS_RelativeHumidity_IsbL-0600_LatLon0.15_PT063H.grib2 2026-04-30 04:16 1.0M
20260430T00Z_MSC_GDPS_RelativeHumidity_IsbL-0650_LatLon0.15_PT063H.grib2 2026-04-30 04:16 1.1M
20260430T00Z_MSC_GDPS_RelativeHumidity_IsbL-0700_LatLon0.15_PT063H.grib2 2026-04-30 04:16 1.1M
20260430T00Z_MSC_GDPS_RelativeHumidity_IsbL-0750_LatLon0.15_PT063H.grib2 2026-04-30 04:16 1.2M
20260430T00Z_MSC_GDPS_RelativeHumidity_IsbL-0800_LatLon0.15_PT063H.grib2 2026-04-30 04:16 1.3M
20260430T00Z_MSC_GDPS_RelativeHumidity_IsbL-0850_LatLon0.15_PT063H.grib2 2026-04-30 04:16 1.3M
20260430T00Z_MSC_GDPS_RelativeHumidity_IsbL-0875_LatLon0.15_PT063H.grib2 2026-04-30 04:16 1.3M
20260430T00Z_MSC_GDPS_RelativeHumidity_IsbL-0900_LatLon0.15_PT063H.grib2 2026-04-30 04:16 1.3M
20260430T00Z_MSC_GDPS_RelativeHumidity_IsbL-0925_LatLon0.15_PT063H.grib2 2026-04-30 04:16 1.2M
20260430T00Z_MSC_GDPS_RelativeHumidity_IsbL-0950_LatLon0.15_PT063H.grib2 2026-04-30 04:16 1.2M
20260430T00Z_MSC_GDPS_RelativeHumidity_IsbL-0970_LatLon0.15_PT063H.grib2 2026-04-30 04:16 1.2M
20260430T00Z_MSC_GDPS_RelativeHumidity_IsbL-0985_LatLon0.15_PT063H.grib2 2026-04-30 04:16 1.2M
20260430T00Z_MSC_GDPS_RelativeHumidity_IsbL-1000_LatLon0.15_PT063H.grib2 2026-04-30 04:16 1.1M
20260430T00Z_MSC_GDPS_RelativeHumidity_IsbL-1015_LatLon0.15_PT063H.grib2 2026-04-30 04:16 1.1M
20260430T00Z_MSC_GDPS_RelativeVorticity_IsbL-0200_LatLon0.15_PT063H.grib2 2026-04-30 04:16 1.5M
20260430T00Z_MSC_GDPS_RelativeVorticity_IsbL-0250_LatLon0.15_PT063H.grib2 2026-04-30 04:16 1.6M
20260430T00Z_MSC_GDPS_RelativeVorticity_IsbL-0500_LatLon0.15_PT063H.grib2 2026-04-30 04:16 1.5M
20260430T00Z_MSC_GDPS_RelativeVorticity_IsbL-0700_LatLon0.15_PT063H.grib2 2026-04-30 04:16 1.3M
20260430T00Z_MSC_GDPS_RelativeVorticity_IsbL-0850_LatLon0.15_PT063H.grib2 2026-04-30 04:16 1.6M
20260430T00Z_MSC_GDPS_Runoff-Accum_Sfc_LatLon0.15_PT063H.grib2 2026-04-30 04:16 143K
20260430T00Z_MSC_GDPS_SensibleHeatNetFlux_Sfc_LatLon0.15_PT063H.grib2 2026-04-30 04:16 646K
20260430T00Z_MSC_GDPS_ShowalterIndex_IsbL-0500_LatLon0.15_PT063H.grib2 2026-04-30 04:16 6.2M
20260430T00Z_MSC_GDPS_Snow-Accum1h_Sfc_LatLon0.15_PT063H.grib2 2026-04-30 04:16 1.2M
20260430T00Z_MSC_GDPS_Snow-Accum3h_Sfc_LatLon0.15_PT063H.grib2 2026-04-30 04:16 1.1M
20260430T00Z_MSC_GDPS_Snow-Accum_Sfc_LatLon0.15_PT063H.grib2 2026-04-30 04:16 2.0M
20260430T00Z_MSC_GDPS_SnowDensity_Sfc_LatLon0.15_PT063H.grib2 2026-04-30 04:16 266K
20260430T00Z_MSC_GDPS_SnowDepth_Sfc_LatLon0.15_PT063H.grib2 2026-04-30 04:16 1.7M
20260430T00Z_MSC_GDPS_SoilTemp_DBS-0to10cm_LatLon0.15_PT063H.grib2 2026-04-30 04:16 509K
20260430T00Z_MSC_GDPS_SoilTemp_Sfc_LatLon0.15_PT063H.grib2 2026-04-30 04:16 582K
20260430T00Z_MSC_GDPS_SoilVolumetricIceContent_Sfc_LatLon0.15_PT063H.grib2 2026-04-30 04:16 202K
20260430T00Z_MSC_GDPS_SoilVolumetricWaterContent_DBS-0to10cm_LatLon0.15_PT063H.grib2 2026-04-30 04:16 587K
20260430T00Z_MSC_GDPS_SoilVolumetricWaterContent_DBS-0to1cm_LatLon0.15_PT063H.grib2 2026-04-30 04:16 650K
20260430T00Z_MSC_GDPS_SpecificHumidity_AGL-120m_LatLon0.15_PT063H.grib2 2026-04-30 04:16 1.1M
20260430T00Z_MSC_GDPS_SpecificHumidity_AGL-2m_LatLon0.15_PT063H.grib2 2026-04-30 04:16 1.2M
20260430T00Z_MSC_GDPS_SpecificHumidity_AGL-40m_LatLon0.15_PT063H.grib2 2026-04-30 04:16 1.1M
20260430T00Z_MSC_GDPS_SpecificHumidity_AGL-80m_LatLon0.15_PT063H.grib2 2026-04-30 04:16 1.1M
20260430T00Z_MSC_GDPS_SpecificHumidity_IsbL-0001_LatLon0.15_PT063H.grib2 2026-04-30 04:16 1.3M
20260430T00Z_MSC_GDPS_SpecificHumidity_IsbL-0005_LatLon0.15_PT063H.grib2 2026-04-30 04:16 1.2M
20260430T00Z_MSC_GDPS_SpecificHumidity_IsbL-0010_LatLon0.15_PT063H.grib2 2026-04-30 04:16 1.3M
20260430T00Z_MSC_GDPS_SpecificHumidity_IsbL-0020_LatLon0.15_PT063H.grib2 2026-04-30 04:16 1.4M
20260430T00Z_MSC_GDPS_SpecificHumidity_IsbL-0030_LatLon0.15_PT063H.grib2 2026-04-30 04:16 1.3M
20260430T00Z_MSC_GDPS_SpecificHumidity_IsbL-0050_LatLon0.15_PT063H.grib2 2026-04-30 04:16 1.3M
20260430T00Z_MSC_GDPS_SpecificHumidity_IsbL-0100_LatLon0.15_PT063H.grib2 2026-04-30 04:16 1.3M
20260430T00Z_MSC_GDPS_SpecificHumidity_IsbL-0150_LatLon0.15_PT063H.grib2 2026-04-30 04:16 1.3M
20260430T00Z_MSC_GDPS_SpecificHumidity_IsbL-0175_LatLon0.15_PT063H.grib2 2026-04-30 04:16 1.2M
20260430T00Z_MSC_GDPS_SpecificHumidity_IsbL-0200_LatLon0.15_PT063H.grib2 2026-04-30 04:16 1.3M
20260430T00Z_MSC_GDPS_SpecificHumidity_IsbL-0225_LatLon0.15_PT063H.grib2 2026-04-30 04:16 1.3M
20260430T00Z_MSC_GDPS_SpecificHumidity_IsbL-0250_LatLon0.15_PT063H.grib2 2026-04-30 04:16 1.4M
20260430T00Z_MSC_GDPS_SpecificHumidity_IsbL-0275_LatLon0.15_PT063H.grib2 2026-04-30 04:16 1.3M
20260430T00Z_MSC_GDPS_SpecificHumidity_IsbL-0300_LatLon0.15_PT063H.grib2 2026-04-30 04:16 1.2M
20260430T00Z_MSC_GDPS_SpecificHumidity_IsbL-0350_LatLon0.15_PT063H.grib2 2026-04-30 04:16 1.2M
20260430T00Z_MSC_GDPS_SpecificHumidity_IsbL-0400_LatLon0.15_PT063H.grib2 2026-04-30 04:16 1.5M
20260430T00Z_MSC_GDPS_SpecificHumidity_IsbL-0450_LatLon0.15_PT063H.grib2 2026-04-30 04:16 1.6M
20260430T00Z_MSC_GDPS_SpecificHumidity_IsbL-0500_LatLon0.15_PT063H.grib2 2026-04-30 04:16 1.4M
20260430T00Z_MSC_GDPS_SpecificHumidity_IsbL-0550_LatLon0.15_PT063H.grib2 2026-04-30 04:16 1.6M
20260430T00Z_MSC_GDPS_SpecificHumidity_IsbL-0600_LatLon0.15_PT063H.grib2 2026-04-30 04:16 1.7M
20260430T00Z_MSC_GDPS_SpecificHumidity_IsbL-0650_LatLon0.15_PT063H.grib2 2026-04-30 04:16 1.5M
20260430T00Z_MSC_GDPS_SpecificHumidity_IsbL-0700_LatLon0.15_PT063H.grib2 2026-04-30 04:16 1.6M
20260430T00Z_MSC_GDPS_SpecificHumidity_IsbL-0750_LatLon0.15_PT063H.grib2 2026-04-30 04:16 1.7M
20260430T00Z_MSC_GDPS_SpecificHumidity_IsbL-0800_LatLon0.15_PT063H.grib2 2026-04-30 04:16 1.9M
20260430T00Z_MSC_GDPS_SpecificHumidity_IsbL-0850_LatLon0.15_PT063H.grib2 2026-04-30 04:16 1.9M
20260430T00Z_MSC_GDPS_SpecificHumidity_IsbL-0875_LatLon0.15_PT063H.grib2 2026-04-30 04:16 1.9M
20260430T00Z_MSC_GDPS_SpecificHumidity_IsbL-0900_LatLon0.15_PT063H.grib2 2026-04-30 04:16 1.9M
20260430T00Z_MSC_GDPS_SpecificHumidity_IsbL-0925_LatLon0.15_PT063H.grib2 2026-04-30 04:16 1.6M
20260430T00Z_MSC_GDPS_SpecificHumidity_IsbL-0950_LatLon0.15_PT063H.grib2 2026-04-30 04:16 1.6M
20260430T00Z_MSC_GDPS_SpecificHumidity_IsbL-0970_LatLon0.15_PT063H.grib2 2026-04-30 04:16 1.6M
20260430T00Z_MSC_GDPS_SpecificHumidity_IsbL-0985_LatLon0.15_PT063H.grib2 2026-04-30 04:16 1.5M
20260430T00Z_MSC_GDPS_SpecificHumidity_IsbL-1000_LatLon0.15_PT063H.grib2 2026-04-30 04:16 1.5M
20260430T00Z_MSC_GDPS_SpecificHumidity_IsbL-1015_LatLon0.15_PT063H.grib2 2026-04-30 04:16 1.5M
20260430T00Z_MSC_GDPS_SpecificHumidity_Sfc_LatLon0.15_PT063H.grib2 2026-04-30 04:16 675K
20260430T00Z_MSC_GDPS_Thickness_IsbL-0850to0700_LatLon0.15_PT063H.grib2 2026-04-30 04:16 469K
20260430T00Z_MSC_GDPS_Thickness_IsbL-1000to0500_LatLon0.15_PT063H.grib2 2026-04-30 04:16 375K
20260430T00Z_MSC_GDPS_Thickness_IsbL-1000to0850_LatLon0.15_PT063H.grib2 2026-04-30 04:16 491K
20260430T00Z_MSC_GDPS_TotalCloudCover_Sfc_LatLon0.15_PT063H.grib2 2026-04-30 04:16 829K
20260430T00Z_MSC_GDPS_TotalTotalsIndex_Sfc_LatLon0.15_PT063H.grib2 2026-04-30 04:16 6.2M
20260430T00Z_MSC_GDPS_UVIndex-ClearSky_Sfc_LatLon0.15_PT063H.grib2 2026-04-30 04:50 1.0M
20260430T00Z_MSC_GDPS_UVIndex_Sfc_LatLon0.15_PT063H.grib2 2026-04-30 04:50 1.5M
20260430T00Z_MSC_GDPS_UpwardLongwaveRadiationFlux_NTAtm_LatLon0.15_PT063H.grib2 2026-04-30 04:16 844K
20260430T00Z_MSC_GDPS_VerticalVelocity_IsbL-0200_LatLon0.15_PT063H.grib2 2026-04-30 04:16 1.1M
20260430T00Z_MSC_GDPS_VerticalVelocity_IsbL-0250_LatLon0.15_PT063H.grib2 2026-04-30 04:16 1.0M
20260430T00Z_MSC_GDPS_VerticalVelocity_IsbL-0500_LatLon0.15_PT063H.grib2 2026-04-30 04:16 1.3M
20260430T00Z_MSC_GDPS_VerticalVelocity_IsbL-0600_LatLon0.15_PT063H.grib2 2026-04-30 04:16 1.1M
20260430T00Z_MSC_GDPS_VerticalVelocity_IsbL-0700_LatLon0.15_PT063H.grib2 2026-04-30 04:16 1.1M
20260430T00Z_MSC_GDPS_VerticalVelocity_IsbL-0850_LatLon0.15_PT063H.grib2 2026-04-30 04:16 1.3M
20260430T00Z_MSC_GDPS_WindChill_Sfc_LatLon0.15_PT063H.grib2 2026-04-30 04:16 5.3M
20260430T00Z_MSC_GDPS_WindDir_AGL-10m_LatLon0.15_PT063H.grib2 2026-04-30 04:16 1.3M
20260430T00Z_MSC_GDPS_WindDir_AGL-120m_LatLon0.15_PT063H.grib2 2026-04-30 04:16 1.3M
20260430T00Z_MSC_GDPS_WindDir_AGL-40m_LatLon0.15_PT063H.grib2 2026-04-30 04:16 1.4M
20260430T00Z_MSC_GDPS_WindDir_AGL-80m_LatLon0.15_PT063H.grib2 2026-04-30 04:16 1.4M
20260430T00Z_MSC_GDPS_WindDir_IsbL-0001_LatLon0.15_PT063H.grib2 2026-04-30 04:16 677K
20260430T00Z_MSC_GDPS_WindDir_IsbL-0005_LatLon0.15_PT063H.grib2 2026-04-30 04:16 809K
20260430T00Z_MSC_GDPS_WindDir_IsbL-0010_LatLon0.15_PT063H.grib2 2026-04-30 04:16 836K
20260430T00Z_MSC_GDPS_WindDir_IsbL-0020_LatLon0.15_PT063H.grib2 2026-04-30 04:16 954K
20260430T00Z_MSC_GDPS_WindDir_IsbL-0030_LatLon0.15_PT063H.grib2 2026-04-30 04:16 935K
20260430T00Z_MSC_GDPS_WindDir_IsbL-0050_LatLon0.15_PT063H.grib2 2026-04-30 04:16 942K
20260430T00Z_MSC_GDPS_WindDir_IsbL-0100_LatLon0.15_PT063H.grib2 2026-04-30 04:16 1.0M
20260430T00Z_MSC_GDPS_WindDir_IsbL-0150_LatLon0.15_PT063H.grib2 2026-04-30 04:16 1.0M
20260430T00Z_MSC_GDPS_WindDir_IsbL-0175_LatLon0.15_PT063H.grib2 2026-04-30 04:16 1.0M
20260430T00Z_MSC_GDPS_WindDir_IsbL-0200_LatLon0.15_PT063H.grib2 2026-04-30 04:16 1.1M
20260430T00Z_MSC_GDPS_WindDir_IsbL-0225_LatLon0.15_PT063H.grib2 2026-04-30 04:16 1.1M
20260430T00Z_MSC_GDPS_WindDir_IsbL-0250_LatLon0.15_PT063H.grib2 2026-04-30 04:16 1.1M
20260430T00Z_MSC_GDPS_WindDir_IsbL-0275_LatLon0.15_PT063H.grib2 2026-04-30 04:16 1.2M
20260430T00Z_MSC_GDPS_WindDir_IsbL-0300_LatLon0.15_PT063H.grib2 2026-04-30 04:16 1.2M
20260430T00Z_MSC_GDPS_WindDir_IsbL-0350_LatLon0.15_PT063H.grib2 2026-04-30 04:16 1.2M
20260430T00Z_MSC_GDPS_WindDir_IsbL-0400_LatLon0.15_PT063H.grib2 2026-04-30 04:16 1.3M
20260430T00Z_MSC_GDPS_WindDir_IsbL-0450_LatLon0.15_PT063H.grib2 2026-04-30 04:16 1.3M
20260430T00Z_MSC_GDPS_WindDir_IsbL-0500_LatLon0.15_PT063H.grib2 2026-04-30 04:16 1.3M
20260430T00Z_MSC_GDPS_WindDir_IsbL-0550_LatLon0.15_PT063H.grib2 2026-04-30 04:16 1.4M
20260430T00Z_MSC_GDPS_WindDir_IsbL-0600_LatLon0.15_PT063H.grib2 2026-04-30 04:16 1.4M
20260430T00Z_MSC_GDPS_WindDir_IsbL-0650_LatLon0.15_PT063H.grib2 2026-04-30 04:16 1.5M
20260430T00Z_MSC_GDPS_WindDir_IsbL-0700_LatLon0.15_PT063H.grib2 2026-04-30 04:16 1.6M
20260430T00Z_MSC_GDPS_WindDir_IsbL-0750_LatLon0.15_PT063H.grib2 2026-04-30 04:16 1.7M
20260430T00Z_MSC_GDPS_WindDir_IsbL-0800_LatLon0.15_PT063H.grib2 2026-04-30 04:16 1.8M
20260430T00Z_MSC_GDPS_WindDir_IsbL-0850_LatLon0.15_PT063H.grib2 2026-04-30 04:16 1.9M
20260430T00Z_MSC_GDPS_WindDir_IsbL-0875_LatLon0.15_PT063H.grib2 2026-04-30 04:16 2.0M
20260430T00Z_MSC_GDPS_WindDir_IsbL-0900_LatLon0.15_PT063H.grib2 2026-04-30 04:16 2.0M
20260430T00Z_MSC_GDPS_WindDir_IsbL-0925_LatLon0.15_PT063H.grib2 2026-04-30 04:16 2.0M
20260430T00Z_MSC_GDPS_WindDir_IsbL-0950_LatLon0.15_PT063H.grib2 2026-04-30 04:16 2.0M
20260430T00Z_MSC_GDPS_WindDir_IsbL-0970_LatLon0.15_PT063H.grib2 2026-04-30 04:16 2.0M
20260430T00Z_MSC_GDPS_WindDir_IsbL-0985_LatLon0.15_PT063H.grib2 2026-04-30 04:16 2.0M
20260430T00Z_MSC_GDPS_WindDir_IsbL-1000_LatLon0.15_PT063H.grib2 2026-04-30 04:16 2.0M
20260430T00Z_MSC_GDPS_WindDir_IsbL-1015_LatLon0.15_PT063H.grib2 2026-04-30 04:16 2.0M
20260430T00Z_MSC_GDPS_WindGust-Max_AGL-10m_LatLon0.15_PT063H.grib2 2026-04-30 04:16 2.2M
20260430T00Z_MSC_GDPS_WindGust-Min_AGL-10m_LatLon0.15_PT063H.grib2 2026-04-30 04:16 2.1M
20260430T00Z_MSC_GDPS_WindGust_AGL-10m_LatLon0.15_PT063H.grib2 2026-04-30 04:16 2.1M
20260430T00Z_MSC_GDPS_WindSpeed_AGL-10m_LatLon0.15_PT063H.grib2 2026-04-30 04:16 1.1M
20260430T00Z_MSC_GDPS_WindSpeed_AGL-120m_LatLon0.15_PT063H.grib2 2026-04-30 04:16 1.2M
20260430T00Z_MSC_GDPS_WindSpeed_AGL-40m_LatLon0.15_PT063H.grib2 2026-04-30 04:16 1.2M
20260430T00Z_MSC_GDPS_WindSpeed_AGL-80m_LatLon0.15_PT063H.grib2 2026-04-30 04:16 1.2M
20260430T00Z_MSC_GDPS_WindSpeed_IsbL-0001_LatLon0.15_PT063H.grib2 2026-04-30 04:16 643K
20260430T00Z_MSC_GDPS_WindSpeed_IsbL-0005_LatLon0.15_PT063H.grib2 2026-04-30 04:16 692K
20260430T00Z_MSC_GDPS_WindSpeed_IsbL-0010_LatLon0.15_PT063H.grib2 2026-04-30 04:16 627K
20260430T00Z_MSC_GDPS_WindSpeed_IsbL-0020_LatLon0.15_PT063H.grib2 2026-04-30 04:16 666K
20260430T00Z_MSC_GDPS_WindSpeed_IsbL-0030_LatLon0.15_PT063H.grib2 2026-04-30 04:16 862K
20260430T00Z_MSC_GDPS_WindSpeed_IsbL-0050_LatLon0.15_PT063H.grib2 2026-04-30 04:16 904K
20260430T00Z_MSC_GDPS_WindSpeed_IsbL-0100_LatLon0.15_PT063H.grib2 2026-04-30 04:16 1.1M
20260430T00Z_MSC_GDPS_WindSpeed_IsbL-0150_LatLon0.15_PT063H.grib2 2026-04-30 04:16 1.0M
20260430T00Z_MSC_GDPS_WindSpeed_IsbL-0175_LatLon0.15_PT063H.grib2 2026-04-30 04:16 1.0M
20260430T00Z_MSC_GDPS_WindSpeed_IsbL-0200_LatLon0.15_PT063H.grib2 2026-04-30 04:16 1.1M
20260430T00Z_MSC_GDPS_WindSpeed_IsbL-0225_LatLon0.15_PT063H.grib2 2026-04-30 04:16 1.1M
20260430T00Z_MSC_GDPS_WindSpeed_IsbL-0250_LatLon0.15_PT063H.grib2 2026-04-30 04:16 1.1M
20260430T00Z_MSC_GDPS_WindSpeed_IsbL-0275_LatLon0.15_PT063H.grib2 2026-04-30 04:16 1.1M
20260430T00Z_MSC_GDPS_WindSpeed_IsbL-0300_LatLon0.15_PT063H.grib2 2026-04-30 04:16 1.1M
20260430T00Z_MSC_GDPS_WindSpeed_IsbL-0350_LatLon0.15_PT063H.grib2 2026-04-30 04:16 1.1M
20260430T00Z_MSC_GDPS_WindSpeed_IsbL-0400_LatLon0.15_PT063H.grib2 2026-04-30 04:16 1.1M
20260430T00Z_MSC_GDPS_WindSpeed_IsbL-0450_LatLon0.15_PT063H.grib2 2026-04-30 04:16 1.1M
20260430T00Z_MSC_GDPS_WindSpeed_IsbL-0500_LatLon0.15_PT063H.grib2 2026-04-30 04:16 1.1M
20260430T00Z_MSC_GDPS_WindSpeed_IsbL-0550_LatLon0.15_PT063H.grib2 2026-04-30 04:16 1.1M
20260430T00Z_MSC_GDPS_WindSpeed_IsbL-0600_LatLon0.15_PT063H.grib2 2026-04-30 04:16 1.4M
20260430T00Z_MSC_GDPS_WindSpeed_IsbL-0650_LatLon0.15_PT063H.grib2 2026-04-30 04:16 1.5M
20260430T00Z_MSC_GDPS_WindSpeed_IsbL-0700_LatLon0.15_PT063H.grib2 2026-04-30 04:16 1.2M
20260430T00Z_MSC_GDPS_WindSpeed_IsbL-0750_LatLon0.15_PT063H.grib2 2026-04-30 04:16 1.6M
20260430T00Z_MSC_GDPS_WindSpeed_IsbL-0800_LatLon0.15_PT063H.grib2 2026-04-30 04:16 1.7M
20260430T00Z_MSC_GDPS_WindSpeed_IsbL-0850_LatLon0.15_PT063H.grib2 2026-04-30 04:16 1.8M
20260430T00Z_MSC_GDPS_WindSpeed_IsbL-0875_LatLon0.15_PT063H.grib2 2026-04-30 04:16 1.8M
20260430T00Z_MSC_GDPS_WindSpeed_IsbL-0900_LatLon0.15_PT063H.grib2 2026-04-30 04:16 1.8M
20260430T00Z_MSC_GDPS_WindSpeed_IsbL-0925_LatLon0.15_PT063H.grib2 2026-04-30 04:16 1.8M
20260430T00Z_MSC_GDPS_WindSpeed_IsbL-0950_LatLon0.15_PT063H.grib2 2026-04-30 04:16 1.8M
20260430T00Z_MSC_GDPS_WindSpeed_IsbL-0970_LatLon0.15_PT063H.grib2 2026-04-30 04:16 1.8M
20260430T00Z_MSC_GDPS_WindSpeed_IsbL-0985_LatLon0.15_PT063H.grib2 2026-04-30 04:16 1.9M
20260430T00Z_MSC_GDPS_WindSpeed_IsbL-1000_LatLon0.15_PT063H.grib2 2026-04-30 04:16 1.9M
20260430T00Z_MSC_GDPS_WindSpeed_IsbL-1015_LatLon0.15_PT063H.grib2 2026-04-30 04:16 1.8M
20260430T00Z_MSC_GDPS_WindU_AGL-10m_LatLon0.15_PT063H.grib2 2026-04-30 04:16 1.3M
20260430T00Z_MSC_GDPS_WindU_AGL-120m_LatLon0.15_PT063H.grib2 2026-04-30 04:16 1.0M
20260430T00Z_MSC_GDPS_WindU_AGL-40m_LatLon0.15_PT063H.grib2 2026-04-30 04:16 1.0M
20260430T00Z_MSC_GDPS_WindU_AGL-80m_LatLon0.15_PT063H.grib2 2026-04-30 04:16 1.0M
20260430T00Z_MSC_GDPS_WindU_IsbL-0001_LatLon0.15_PT063H.grib2 2026-04-30 04:16 499K
20260430T00Z_MSC_GDPS_WindU_IsbL-0005_LatLon0.15_PT063H.grib2 2026-04-30 04:16 689K
20260430T00Z_MSC_GDPS_WindU_IsbL-0010_LatLon0.15_PT063H.grib2 2026-04-30 04:16 701K
20260430T00Z_MSC_GDPS_WindU_IsbL-0020_LatLon0.15_PT063H.grib2 2026-04-30 04:16 732K
20260430T00Z_MSC_GDPS_WindU_IsbL-0030_LatLon0.15_PT063H.grib2 2026-04-30 04:16 735K
20260430T00Z_MSC_GDPS_WindU_IsbL-0050_LatLon0.15_PT063H.grib2 2026-04-30 04:16 767K
20260430T00Z_MSC_GDPS_WindU_IsbL-0100_LatLon0.15_PT063H.grib2 2026-04-30 04:16 925K
20260430T00Z_MSC_GDPS_WindU_IsbL-0150_LatLon0.15_PT063H.grib2 2026-04-30 04:16 1.0M
20260430T00Z_MSC_GDPS_WindU_IsbL-0175_LatLon0.15_PT063H.grib2 2026-04-30 04:16 817K
20260430T00Z_MSC_GDPS_WindU_IsbL-0200_LatLon0.15_PT063H.grib2 2026-04-30 04:16 844K
20260430T00Z_MSC_GDPS_WindU_IsbL-0225_LatLon0.15_PT063H.grib2 2026-04-30 04:16 856K
20260430T00Z_MSC_GDPS_WindU_IsbL-0250_LatLon0.15_PT063H.grib2 2026-04-30 04:16 858K
20260430T00Z_MSC_GDPS_WindU_IsbL-0275_LatLon0.15_PT063H.grib2 2026-04-30 04:16 886K
20260430T00Z_MSC_GDPS_WindU_IsbL-0300_LatLon0.15_PT063H.grib2 2026-04-30 04:16 877K
20260430T00Z_MSC_GDPS_WindU_IsbL-0350_LatLon0.15_PT063H.grib2 2026-04-30 04:16 890K
20260430T00Z_MSC_GDPS_WindU_IsbL-0400_LatLon0.15_PT063H.grib2 2026-04-30 04:16 892K
20260430T00Z_MSC_GDPS_WindU_IsbL-0450_LatLon0.15_PT063H.grib2 2026-04-30 04:16 1.1M
20260430T00Z_MSC_GDPS_WindU_IsbL-0500_LatLon0.15_PT063H.grib2 2026-04-30 04:16 1.1M
20260430T00Z_MSC_GDPS_WindU_IsbL-0550_LatLon0.15_PT063H.grib2 2026-04-30 04:16 1.1M
20260430T00Z_MSC_GDPS_WindU_IsbL-0600_LatLon0.15_PT063H.grib2 2026-04-30 04:16 1.2M
20260430T00Z_MSC_GDPS_WindU_IsbL-0650_LatLon0.15_PT063H.grib2 2026-04-30 04:16 1.2M
20260430T00Z_MSC_GDPS_WindU_IsbL-0700_LatLon0.15_PT063H.grib2 2026-04-30 04:16 1.2M
20260430T00Z_MSC_GDPS_WindU_IsbL-0750_LatLon0.15_PT063H.grib2 2026-04-30 04:16 1.3M
20260430T00Z_MSC_GDPS_WindU_IsbL-0800_LatLon0.15_PT063H.grib2 2026-04-30 04:16 1.4M
20260430T00Z_MSC_GDPS_WindU_IsbL-0850_LatLon0.15_PT063H.grib2 2026-04-30 04:16 1.4M
20260430T00Z_MSC_GDPS_WindU_IsbL-0875_LatLon0.15_PT063H.grib2 2026-04-30 04:16 1.5M
20260430T00Z_MSC_GDPS_WindU_IsbL-0900_LatLon0.15_PT063H.grib2 2026-04-30 04:16 1.5M
20260430T00Z_MSC_GDPS_WindU_IsbL-0925_LatLon0.15_PT063H.grib2 2026-04-30 04:16 1.5M
20260430T00Z_MSC_GDPS_WindU_IsbL-0950_LatLon0.15_PT063H.grib2 2026-04-30 04:16 1.4M
20260430T00Z_MSC_GDPS_WindU_IsbL-0970_LatLon0.15_PT063H.grib2 2026-04-30 04:16 1.4M
20260430T00Z_MSC_GDPS_WindU_IsbL-0985_LatLon0.15_PT063H.grib2 2026-04-30 04:16 1.4M
20260430T00Z_MSC_GDPS_WindU_IsbL-1000_LatLon0.15_PT063H.grib2 2026-04-30 04:16 1.4M
20260430T00Z_MSC_GDPS_WindU_IsbL-1015_LatLon0.15_PT063H.grib2 2026-04-30 04:16 1.4M
20260430T00Z_MSC_GDPS_WindV_AGL-10m_LatLon0.15_PT063H.grib2 2026-04-30 04:16 1.3M
20260430T00Z_MSC_GDPS_WindV_AGL-120m_LatLon0.15_PT063H.grib2 2026-04-30 04:16 1.0M
20260430T00Z_MSC_GDPS_WindV_AGL-40m_LatLon0.15_PT063H.grib2 2026-04-30 04:16 1.0M
20260430T00Z_MSC_GDPS_WindV_AGL-80m_LatLon0.15_PT063H.grib2 2026-04-30 04:16 1.0M
20260430T00Z_MSC_GDPS_WindV_IsbL-0001_LatLon0.15_PT063H.grib2 2026-04-30 04:16 779K
20260430T00Z_MSC_GDPS_WindV_IsbL-0005_LatLon0.15_PT063H.grib2 2026-04-30 04:16 764K
20260430T00Z_MSC_GDPS_WindV_IsbL-0010_LatLon0.15_PT063H.grib2 2026-04-30 04:16 795K
20260430T00Z_MSC_GDPS_WindV_IsbL-0020_LatLon0.15_PT063H.grib2 2026-04-30 04:16 850K
20260430T00Z_MSC_GDPS_WindV_IsbL-0030_LatLon0.15_PT063H.grib2 2026-04-30 04:16 850K
20260430T00Z_MSC_GDPS_WindV_IsbL-0050_LatLon0.15_PT063H.grib2 2026-04-30 04:16 902K
20260430T00Z_MSC_GDPS_WindV_IsbL-0100_LatLon0.15_PT063H.grib2 2026-04-30 04:16 1.1M
20260430T00Z_MSC_GDPS_WindV_IsbL-0150_LatLon0.15_PT063H.grib2 2026-04-30 04:16 1.0M
20260430T00Z_MSC_GDPS_WindV_IsbL-0175_LatLon0.15_PT063H.grib2 2026-04-30 04:16 1.0M
20260430T00Z_MSC_GDPS_WindV_IsbL-0200_LatLon0.15_PT063H.grib2 2026-04-30 04:16 843K
20260430T00Z_MSC_GDPS_WindV_IsbL-0225_LatLon0.15_PT063H.grib2 2026-04-30 04:16 850K
20260430T00Z_MSC_GDPS_WindV_IsbL-0250_LatLon0.15_PT063H.grib2 2026-04-30 04:16 910K
20260430T00Z_MSC_GDPS_WindV_IsbL-0275_LatLon0.15_PT063H.grib2 2026-04-30 04:16 936K
20260430T00Z_MSC_GDPS_WindV_IsbL-0300_LatLon0.15_PT063H.grib2 2026-04-30 04:16 924K
20260430T00Z_MSC_GDPS_WindV_IsbL-0350_LatLon0.15_PT063H.grib2 2026-04-30 04:16 878K
20260430T00Z_MSC_GDPS_WindV_IsbL-0400_LatLon0.15_PT063H.grib2 2026-04-30 04:16 881K
20260430T00Z_MSC_GDPS_WindV_IsbL-0450_LatLon0.15_PT063H.grib2 2026-04-30 04:16 883K
20260430T00Z_MSC_GDPS_WindV_IsbL-0500_LatLon0.15_PT063H.grib2 2026-04-30 04:16 1.1M
20260430T00Z_MSC_GDPS_WindV_IsbL-0550_LatLon0.15_PT063H.grib2 2026-04-30 04:16 1.1M
20260430T00Z_MSC_GDPS_WindV_IsbL-0600_LatLon0.15_PT063H.grib2 2026-04-30 04:16 1.1M
20260430T00Z_MSC_GDPS_WindV_IsbL-0650_LatLon0.15_PT063H.grib2 2026-04-30 04:16 1.2M
20260430T00Z_MSC_GDPS_WindV_IsbL-0700_LatLon0.15_PT063H.grib2 2026-04-30 04:16 1.2M
20260430T00Z_MSC_GDPS_WindV_IsbL-0750_LatLon0.15_PT063H.grib2 2026-04-30 04:16 1.3M
20260430T00Z_MSC_GDPS_WindV_IsbL-0800_LatLon0.15_PT063H.grib2 2026-04-30 04:16 1.3M
20260430T00Z_MSC_GDPS_WindV_IsbL-0850_LatLon0.15_PT063H.grib2 2026-04-30 04:16 1.4M
20260430T00Z_MSC_GDPS_WindV_IsbL-0875_LatLon0.15_PT063H.grib2 2026-04-30 04:16 1.5M
20260430T00Z_MSC_GDPS_WindV_IsbL-0900_LatLon0.15_PT063H.grib2 2026-04-30 04:16 1.5M
20260430T00Z_MSC_GDPS_WindV_IsbL-0925_LatLon0.15_PT063H.grib2 2026-04-30 04:16 1.5M
20260430T00Z_MSC_GDPS_WindV_IsbL-0950_LatLon0.15_PT063H.grib2 2026-04-30 04:16 1.4M
20260430T00Z_MSC_GDPS_WindV_IsbL-0970_LatLon0.15_PT063H.grib2 2026-04-30 04:16 1.4M
20260430T00Z_MSC_GDPS_WindV_IsbL-0985_LatLon0.15_PT063H.grib2 2026-04-30 04:16 1.4M
20260430T00Z_MSC_GDPS_WindV_IsbL-1000_LatLon0.15_PT063H.grib2 2026-04-30 04:16 1.4M
20260430T00Z_MSC_GDPS_WindV_IsbL-1015_LatLon0.15_PT063H.grib2 2026-04-30 04:16 1.3M